轨道通信卫星FM02星 (ORBCOMM FM02)

导读

ORBCOMM FM 2卫星于1995年4月3日由ORB发射,属于ORBCOMM星座系列,是全球早期低轨卫星通信网络的组成部分。该卫星主要用于提供全球范围的 machine-to-machine(M2M)数据通信服务,支持船舶跟踪、远程设备监控等应用。作为ORBCOMM早期组网卫星之一,它推动了低轨卫星通信商业化发展,为后续星座扩展奠定技术基础。

基本信息
目录编号:
23546
目录名称:
ORBCOMM FM 2
国际标识:
1995-017B
轨道中心:
EARTH
卫星名称:
轨道通信卫星FM02星
卫星全名:
轨道通信卫星FM02星 (ORBCOMM FM02)
卫星状态:
在轨 (已飞行11393 天)
发射日期:
1995-04-03 UTC
国别 :
(ORB)
星等 :
--
轨道信息
数据来源 国际轨道数据 AOE轨道数据
星历时间 2026-06-12T00:21:55+0800
1天前
查看轨道信息
2026-06-11T05:00:00+0800
1天前
查看轨道信息
半长轴 6950.264km 6950.307km
偏心率 0.0003773 0.0003836
轨道倾角 69.962° 69.962°
近地点辐角 166.842° 167.804°
升交点赤经 270.785° 272.822°
平近点角 193.284° 161.332°
近地点 569.504km 569.503km
远地点 574.75km 574.837km
周期 96.108分钟 96.109分钟
每日圈数 14.983073 14.982932
详细信息
平衡模式:
三轴稳定
覆盖范围:
全球
运营商:
轨道通信公司
运营商所在国:
美国
制造商(研发单位):
轨道ATK公司
制造商所在国:
美国
使用方式:
暂无
卫星简介
轨道通信FM(Orbcomm FM)是一系列低地球轨道通信卫星,由美国卫星通信公司 Orbcomm运营。 截至2015年12月,已有63颗此类卫星绕地球运行。该卫星已退役。
2D轨道图
3D轨道图
轨道高度分析图
轨道倾角分析图
轨道综合分析图
查看轨道综合分析图